C/2022 E2 ( ATLAS )

Japanese version
Home page
Updated on September 2, 2023

---------------------------------------------------------------------

* Profile

Discovery Date March 7, 2022
Magnitude 18.7 mag
Discoverer Asteroid Terrestrial-Impact Last Alert System (ATLAS) search program

* Pictures

* Orbital Elements

Epoch 2023 Feb. 25.0 TT = JDT 2460000.5
T 2024 Sept. 13.92990 TT                                Rudenko
q   3.6670172            (2000.0)            P               Q
z  -0.0003035      Peri.   41.68039     -0.03478111     +0.83129362
 +/-0.0000010      Node   125.36380     +0.63768815     -0.40893772
e   1.0011131      Incl.  137.13636     +0.76950900     +0.37645830
>From 732 observations 2022 Feb. 23-2023 Mar. 20, mean residual 0".4.

* Finding Charts

* Magnitudes Graph

        m1 = 2.2 + 5 log d + 12.5 log r

---------------------------------------------------------------------

The orbital elements are published on M.P.E.C. 2023-F81.
The charts are made with StellaNavigator Ver.10 (AstroArts).
The magnitudes graphs are made with Comet for Windows.

---------------------------------------------------------------------

Copyright(C) Seiichi Yoshida (comet@aerith.net). All rights reserved.